DW4326 Weather Reports


time (UTC)temp
C
wind
direction
speed
KPH
gust
KPH
rain 1hr
cm
rain 24hr
cm
rain mn
cm
humidity
%
barometer
mb
20260505050846 6 322 0.0 0.0 0.00 0.03 0.00 87 1006.8
20260505040842 7 322 0.0 0.0 0.00 0.03 0.00 84 1006.6
20260505040112 7 322 0.0 0.0 0.00 0.03 0.03 84 1006.5
20260505033840 7 322 0.0 1.6 0.00 0.03 0.03 83 1006.5
20260505033107 7 322 0.0 0.0 0.00 0.03 0.03 82 1006.3
20260505030837 8 322 0.0 0.0 0.00 0.03 0.03 80 1006.3
20260505025329 8 322 0.0 0.0 0.00 0.03 0.03 80 1006.3
20260505023830 9 322 0.0 0.0 0.00 0.03 0.03 79 1006.2
20260505022328 9 322 0.0 0.0 0.00 0.03 0.03 78 1006.2
20260505020827 10 322 0.0 0.0 0.00 0.03 0.03 76 1006.3
20260505015329 10 322 0.0 0.0 0.00 0.03 0.03 74 1006.2
20260505014600 11 322 0.0 0.0 0.00 0.03 0.03 73 1006.2
20260505012328 11 322 0.0 0.0 0.00 0.03 0.03 70 1005.9
20260505010829 12 322 0.0 0.0 0.00 0.03 0.03 69 1005.9
20260505010058 12 322 0.0 0.0 0.00 0.03 0.03 66 1005.7
20260505003825 13 322 0.0 0.0 0.00 0.03 0.03 63 1005.4
20260505002319 15 322 0.0 0.0 0.00 0.03 0.03 58 1005.2
20260505000821 16 322 0.0 3.2 0.00 0.03 0.03 54 1005.1
20260505000049 17 99 0.0 8.0 0.00 0.03 0.03 46 1004.9
20260504233815 18 190 3.2 14.5 0.00 0.03 0.03 41 1004.7
20260504232317 18 210 0.0 12.9 0.00 0.03 0.03 40 1004.4
20260504230816 18 351 3.2 14.5 0.00 0.03 0.03 36 1004.2
20260504225315 18 219 1.6 14.5 0.00 0.03 0.03 43 1004.2
20260504223815 19 171 1.6 12.9 0.00 0.03 0.03 37 1003.9
20260504223046 19 315 1.6 29.0 0.00 0.03 0.03 35 1004.0
20260504220817 20 190 4.8 11.3 0.00 0.03 0.03 35 1004.0
20260504215314 20 157 4.8 27.4 0.00 0.03 0.03 37 1004.0
20260504213809 20 154 6.4 24.1 0.00 0.03 0.03 36 1004.0
20260504212307 20 319 6.4 20.9 0.00 0.03 0.03 37 1003.8
20260504210801 20 45 6.4 25.7 0.00 0.03 0.03 35 1003.9
20260504205304 20 89 8.0 25.7 0.00 0.03 0.03 37 1003.9
20260504204526 19 197 3.2 29.0 0.00 0.03 0.03 40 1004.3
20260504202256 19 5 8.0 30.6 0.00 0.03 0.03 36 1004.4
20260504200750 20 196 11.3 24.1 0.00 0.03 0.03 38 1004.2
20260504195249 19 148 4.8 16.1 0.00 0.03 0.03 39 1004.3
20260504193744 19 126 8.0 22.5 0.00 0.03 0.03 39 1004.3
20260504192245 20 150 6.4 22.5 0.00 0.03 0.03 38 1004.5
20260504190737 20 297 6.4 25.7 0.00 0.03 0.03 37 1004.7
20260504185238 20 90 4.8 32.2 0.00 0.03 0.03 40 1004.6
20260504183738 19 125 6.4 24.1 0.00 0.03 0.03 44 1005.1
20260504183733 19 325 9.7 32.2 0.00 0.03 0.03 38 1005.3
20260504180726 19 21 8.0 25.7 0.00 0.03 0.03 41 1004.9
20260504175227 18 180 6.4 24.1 0.00 0.03 0.03 44 1004.8
20260504174450 18 279 4.8 20.9 0.00 0.03 0.03 46 1004.9
20260504172219 17 9 4.8 16.1 0.00 0.03 0.03 45 1005.3
20260504170715 16 5 8.0 22.5 0.00 0.03 0.03 47 1005.6
20260504150702 14 274 6.4 22.5 0.00 0.03 0.03 47 1006.0
20260504140657 15 295 8.0 24.1 0.00 0.03 0.03 47 1006.1
20260504130657 10 0 3.2 20.9 0.00 0.03 0.03 69 1006.1
20260504110639 3 287 0.0 0.0 0.00 0.03 0.03 94 1007.0
20260504081346 2 297 0.0 0.0 0.00 0.05 0.03 93 1007.1